Regional Weather Roundup
Issued by NWS

Home | Current Version | Previous Version | Text Only | Print | Product List | Glossary On
Versions: 1 2 3 4 5 6 7 8 9 10 11 12 13 14 15 16 17 18 19 20 21 22 23 24 25 26 27 28 29 30 31 32 33 34 35 36 37 38 39 40 41 42 43 44 45 46 47 48 49 50
000
ASUS45 KBOU 281607
RWRCO

WEATHER ROUNDUP FOR COLORADO
NATIONAL WEATHER SERVICE DENVER/BOULDER CO
1000 AM MDT SAT MAR 28 2015

NOTE: "FAIR" INDICATES FEW OR NO CLOUDS BELOW 12000 FEET WITH NO
SIGNIFICANT WEATHER AND/OR OBSTRUCTIONS TO VISIBILITY.

COZ001>005-013-030-031-281700-
...NORTHWEST COLORADO...

CITY           SKY/WX    TMP DP  RH WIND       PRES   REMARKS
CRAIG          SUNNY     50  34  54 CALM      30.22F
HAYDEN         SUNNY     50  28  43 E8        30.23S
MEEKER         SUNNY     51  30  44 CALM      30.24S
MOUNT WERNER   NOT AVBL
STEAMBOAT SPGS SUNNY     43  30  59 CALM      30.24S
WALDEN         SUNNY     50  25  37 S14G22    30.23S
$$

COZ006>008-011-281700-
...WEST CENTRAL VALLEYS...

CITY           SKY/WX    TMP DP  RH WIND       PRES   REMARKS
GRAND JUNCTION SUNNY     56  29  35 SE6       30.21R
MONTROSE       SUNNY     55  25  31 CALM      30.26F
EAGLE          SUNNY     43  28  56 CALM      30.29F
RIFLE          SUNNY     50  29  44 E6        30.25S
DELTA          NOT AVBL
NUCLA          SUNNY     50  25  37 CALM      30.31S
$$

COZ017>023-064>068-281700-
...SOUTHWEST COLORADO...

CITY           SKY/WX    TMP DP  RH WIND       PRES   REMARKS
DURANGO        SUNNY     52  26  36 CALM      30.29S
CORTEZ         SUNNY     54  28  36 CALM      30.27S
PAGOSA SPRINGS SUNNY     51  23  34 CALM      30.33F
TELLURIDE      SUNNY     49  24  37 CALM      30.40F
WOLF CREEK PAS SUNNY     37  12  35 SW10      30.51S
$$

COZ009-010-012-014-032>034-037-058>063-281700-
...CENTRAL COLORADO...

CITY           SKY/WX    TMP DP  RH WIND       PRES   REMARKS
ASPEN          SUNNY     50  25  37 S5        30.28F
BUENA VISTA    SUNNY     48  23  36 CALM      30.28F
COPPER MTN     SUNNY     37  19  48 SW16G23   30.45S
BERTHOUD PASS  FAIR      30  25  80 W39       30.40F WCI  13
COTTONWOOD PAS SUNNY     50  14  23 W18G32    30.35S
GUNNISON       SUNNY     39  21  48 CALM      30.39S
KREMMLING      SUNNY     43  28  56 CALM      30.29F
LEADVILLE      SUNNY     45  19  35 NW13G18   30.35S
SALIDA         SUNNY     48  24  38 CALM      30.35S
SUNLIGHT       SUNNY     43  21  42 CALM      30.44
WILKERSON PASS SUNNY     41  19  42 W3        30.42R
$$

COZ069>075-281700-
...SAN LUIS VALLEY/SANGRE DE CRISTO MOUNTAINS...

CITY           SKY/WX    TMP DP  RH WIND       PRES   REMARKS
ALAMOSA        SUNNY     52  21  29 N5        30.31S
LA VETA PASS   SUNNY     45  21  39 S6        30.38S
SAGUACHE       SUNNY     50  23  34 SE6       30.33S
$$

COZ035-036-038>040-281700-
...NORTHERN COLORADO FRONT RANGE...

CITY           SKY/WX    TMP DP  RH WIND       PRES   REMARKS
DENVER INTL AP SUNNY     66  32  28 SW10      30.09S
DMNS CITY PARK   N/A     67  28  23 S10       30.07F
AURORA         SUNNY     65  29  26 S10       30.10S
FRONT RANGE AP SUNNY     68  30  24 MISG      30.10S
ERIE MUNI ARPT SUNNY     68  26  20 S9        30.06S
BOULDER MUN AP SUNNY     68  32  26 E3        30.06S
CENTENNIAL     MOSUNNY   65  26  23 S9        30.11S
BROOMFIELD     SUNNY     64  28  25 NE9       30.09S
FORT COLLINS   SUNNY     61  36  39 SE8       30.07S
LONGMONT       SUNNY     64  33  30 E5        30.07S
$$

COZ041-046-047-076>085-087-088-281700-
...PIKES PEAK/PALMER DIVIDE AND SOUTHERN FOOTHILLS...

CITY           SKY/WX    TMP DP  RH WIND       PRES   REMARKS
COLO. SPRINGS  SUNNY     64  23  21 W8        30.17R
A. F. ACADEMY  SUNNY     62  22  22 VRB3      30.17S
ELLICOTT       SUNNY    N/A N/A N/A W8        30.15S
FALCON         SUNNY     63  19  18 W9        30.20S
FORT CARSON    SUNNY     64  29  26 SE6       30.14S
LIMON          SUNNY     65  27  23 NW8       30.11S
MONUMENT HILL  SUNNY     61  23  23 SW7       30.18S
TRINIDAD       SUNNY     66  24  20 W10       30.17S
$$

COZ042>045-048>051-090-091-281700-
...NORTHEAST COLORADO...

CITY           SKY/WX    TMP DP  RH WIND       PRES   REMARKS
GREELEY ARPT   SUNNY     61  34  36 CALM      30.04F
AKRON          SUNNY     64  29  26 W15       30.05S
BURLINGTON     SUNNY     67  35  30 NW6       30.05S
WRAY           SUNNY     64  33  32 CALM      30.03S
STERLING       SUNNY     59  34  38 S8        30.02S
HOLYOKE        SUNNY     64  32  29 CALM      30.01S
FORT MORGAN    SUNNY     60  31  33 W7        30.05S
$$

COZ086-089-092>099-281700-
...SOUTHEAST COLORADO...

CITY           SKY/WX    TMP DP  RH WIND       PRES   REMARKS
PUEBLO         SUNNY     66  30  26 W10       30.11S
LA JUNTA       SUNNY     65  32  29 W9        30.08S
LAMAR          SUNNY     64  34  32 W12       30.05S
SPRINGFIELD      N/A     73  28  18 NW17      30.08S
$$



USA.gov is the U.S. government's official web portal to all federal, state and local government web resources and services.